timestamp,wind_dir_avg,wind_spd_avg,wind_spd_max_dir,wind_spd_gust,battery_voltage,lat,long
2022-05-17 00:04:01+00:00,243.0,6.75,245.0,7.12,13.05,47.59359,-54.27349
2022-05-17 00:14:00+00:00,248.0,6.18,251.0,6.51,12.57,47.59359,-54.27349
2022-05-17 00:24:00+00:00,248.0,6.16,250.0,6.49,12.57,47.59359,-54.27349
2022-05-17 00:34:00+00:00,246.0,6.11,249.0,6.41,12.57,47.59359,-54.27349
2022-05-17 00:44:00+00:00,248.0,6.88,248.0,7.18,12.57,47.59359,-54.27349
2022-05-17 00:54:00+00:00,241.0,6.89,243.0,7.6,12.57,47.59359,-54.27349
2022-05-17 01:04:00+00:00,235.0,6.98,236.0,7.64,12.57,47.59359,-54.27349
2022-05-17 01:14:01+00:00,237.0,6.77,238.0,7.29,12.41,47.59359,-54.27349
2022-05-17 01:24:01+00:00,234.0,6.45,240.0,7.8,12.41,47.59359,-54.27349
2022-05-17 01:34:01+00:00,234.0,7.36,236.0,8.03,12.41,47.59359,-54.27349
2022-05-17 01:44:01+00:00,239.0,7.17,239.0,7.81,12.41,47.59359,-54.27349
2022-05-17 01:54:01+00:00,244.0,6.44,249.0,7.33,12.41,47.59359,-54.27349
2022-05-17 02:04:01+00:00,247.0,6.47,248.0,6.87,12.41,47.59359,-54.27349
2022-05-17 02:14:01+00:00,243.0,6.8,245.0,7.19,12.41,47.59359,-54.27349
2022-05-17 02:24:01+00:00,234.0,6.76,239.0,7.36,12.41,47.59359,-54.27349
2022-05-17 02:34:01+00:00,234.0,6.54,238.0,7.74,12.41,47.59359,-54.27349
2022-05-17 02:44:01+00:00,246.0,6.79,249.0,7.24,12.41,47.59359,-54.27349
2022-05-17 02:54:01+00:00,242.0,6.12,244.0,6.7,12.41,47.59359,-54.27349
2022-05-17 03:04:01+00:00,233.0,6.44,232.0,6.97,12.41,47.59359,-54.27349
2022-05-17 03:14:01+00:00,224.0,5.36,226.0,5.91,12.41,47.59359,-54.27349
2022-05-17 03:24:01+00:00,223.0,5.72,236.0,7.29,12.41,47.59359,-54.27349
2022-05-17 03:34:01+00:00,230.0,5.04,241.0,6.56,12.41,47.59359,-54.27349
2022-05-17 03:44:01+00:00,221.0,5.22,240.0,7.31,12.41,47.59359,-54.27349
2022-05-17 03:54:01+00:00,230.0,5.88,235.0,6.49,12.41,47.59359,-54.27349
2022-05-17 04:04:01+00:00,238.0,5.49,244.0,6.93,12.41,47.59359,-54.27349
2022-05-17 04:14:00+00:00,229.0,4.65,238.0,6.3,12.41,47.59359,-54.27349
2022-05-17 04:24:00+00:00,243.0,6.19,247.0,6.83,12.41,47.59359,-54.27349
2022-05-17 04:34:00+00:00,242.0,6.22,243.0,6.79,12.41,47.59359,-54.27349
2022-05-17 04:44:00+00:00,244.0,5.77,248.0,6.17,12.41,47.59359,-54.27349
2022-05-17 04:54:00+00:00,240.0,5.87,240.0,6.32,12.41,47.59359,-54.27349
2022-05-17 05:04:00+00:00,232.0,4.53,241.0,6.26,12.41,47.59359,-54.27349
2022-05-17 05:14:00+00:00,225.0,3.28,244.0,5.95,12.33,47.59359,-54.27349
2022-05-17 05:24:00+00:00,204.0,2.0,242.0,4.2,12.33,47.59359,-54.27349
2022-05-17 05:34:00+00:00,243.0,2.76,253.0,4.45,12.33,47.59359,-54.27349
2022-05-17 05:44:00+00:00,201.0,1.66,195.0,2.08,12.33,47.59359,-54.27349
2022-05-17 05:54:00+00:00,163.0,1.56,162.0,1.75,12.33,47.59359,-54.27349
2022-05-17 06:04:00+00:00,166.0,0.93,160.0,1.08,12.33,47.59359,-54.27349
2022-05-17 06:14:01+00:00,186.0,1.11,188.0,1.29,12.33,47.59359,-54.27349
2022-05-17 06:24:01+00:00,186.0,1.39,185.0,1.7,12.33,47.59359,-54.27349
2022-05-17 06:34:01+00:00,222.0,1.22,236.0,1.77,12.33,47.59359,-54.27349
2022-05-17 06:44:01+00:00,194.0,1.27,193.0,1.55,12.33,47.59359,-54.27349
2022-05-17 06:54:01+00:00,158.0,1.09,159.0,1.27,12.33,47.59359,-54.27349
2022-05-17 07:04:01+00:00,117.0,2.38,103.0,5.17,12.33,47.59359,-54.27349
2022-05-17 07:14:01+00:00,110.0,2.09,94.0,5.18,12.25,47.59359,-54.27349
2022-05-17 07:24:01+00:00,101.0,4.97,100.0,5.54,12.25,47.59359,-54.27349
2022-05-17 07:34:01+00:00,91.0,1.93,90.0,5.72,12.25,47.59359,-54.27349
2022-05-17 07:44:01+00:00,97.0,3.53,97.0,5.78,12.25,47.59359,-54.27349
2022-05-17 07:54:01+00:00,96.0,1.51,99.0,5.72,12.25,47.59359,-54.27349
2022-05-17 08:04:01+00:00,100.0,4.84,94.0,5.83,12.25,47.59359,-54.27349
2022-05-17 08:14:00+00:00,100.0,4.68,106.0,5.96,12.25,47.59359,-54.27349
2022-05-17 08:24:00+00:00,101.0,3.64,100.0,5.88,12.25,47.59359,-54.27349
2022-05-17 08:34:00+00:00,87.0,4.53,84.0,5.78,12.25,47.59359,-54.27349
2022-05-17 08:44:00+00:00,104.0,4.78,111.0,5.98,12.25,47.59359,-54.27349
2022-05-17 08:54:00+00:00,105.0,4.87,105.0,6.06,12.25,47.59359,-54.27349
2022-05-17 09:04:00+00:00,71.0,0.94,88.0,3.42,12.25,47.59359,-54.27349
2022-05-17 09:14:01+00:00,104.0,4.69,103.0,5.52,12.25,47.59359,-54.27349
2022-05-17 09:24:01+00:00,100.0,3.8,102.0,5.73,12.25,47.59359,-54.27349
2022-05-17 09:34:01+00:00,86.0,3.48,83.0,5.85,12.25,47.59359,-54.27349
2022-05-17 09:44:01+00:00,90.0,0.76,103.0,2.39,12.25,47.59359,-54.27349
2022-05-17 09:54:01+00:00,108.0,2.9,98.0,5.11,12.25,47.59359,-54.27349
2022-05-17 10:04:01+00:00,88.0,5.02,87.0,6.23,12.25,47.59359,-54.27349
2022-05-17 10:14:01+00:00,100.0,3.38,98.0,5.93,13.21,47.59359,-54.27349
2022-05-17 10:24:01+00:00,87.0,4.29,84.0,5.68,13.21,47.59359,-54.27349
2022-05-17 10:34:01+00:00,85.0,4.26,90.0,5.57,13.21,47.59359,-54.27349
2022-05-17 10:44:01+00:00,89.0,3.13,91.0,5.45,13.21,47.59359,-54.27349
2022-05-17 10:54:01+00:00,85.0,4.03,89.0,5.46,13.21,47.59359,-54.27349
2022-05-17 11:04:01+00:00,99.0,4.69,98.0,5.74,13.21,47.59359,-54.27349
2022-05-17 11:14:00+00:00,85.0,3.97,86.0,5.63,13.68,47.59359,-54.27349
2022-05-17 11:24:00+00:00,79.0,4.97,80.0,5.48,13.68,47.59359,-54.27349
2022-05-17 11:34:00+00:00,86.0,3.35,92.0,5.77,13.68,47.59359,-54.27349
2022-05-17 11:44:00+00:00,71.0,5.11,74.0,5.94,13.68,47.59359,-54.27349
2022-05-17 11:54:00+00:00,67.0,5.01,71.0,5.8,13.68,47.59359,-54.27349
2022-05-17 12:04:00+00:00,81.0,5.47,85.0,6.02,13.68,47.59359,-54.27349
2022-05-17 12:14:01+00:00,70.0,6.21,70.0,6.69,13.6,47.59359,-54.27349
2022-05-17 12:24:01+00:00,71.0,6.11,72.0,6.81,13.6,47.59359,-54.27349
2022-05-17 12:34:01+00:00,75.0,6.37,74.0,7.02,13.6,47.59359,-54.27349
2022-05-17 12:44:01+00:00,93.0,5.48,88.0,6.46,13.6,47.59359,-54.27349
2022-05-17 12:54:01+00:00,88.0,5.23,86.0,6.47,13.6,47.59359,-54.27349
2022-05-17 13:04:01+00:00,93.0,4.02,98.0,5.65,13.6,47.59359,-54.27349
2022-05-17 13:14:00+00:00,105.0,5.69,108.0,6.37,13.68,47.59359,-54.27349
2022-05-17 13:24:00+00:00,102.0,5.55,108.0,6.28,13.68,47.59359,-54.27349
2022-05-17 13:34:00+00:00,83.0,0.36,117.0,0.77,13.68,47.59359,-54.27349
2022-05-17 13:44:00+00:00,4.0,1.66,4.0,2.12,13.68,47.59359,-54.27349
2022-05-17 13:54:00+00:00,4.0,2.36,6.0,2.99,13.68,47.59359,-54.27349
2022-05-17 14:04:00+00:00,8.0,2.0,5.0,2.42,13.68,47.59359,-54.27349
2022-05-17 14:14:01+00:00,23.0,3.43,48.0,4.8,14.24,47.59359,-54.27349
2022-05-17 14:24:01+00:00,16.0,2.83,22.0,3.22,14.24,47.59359,-54.27349
2022-05-17 14:34:01+00:00,16.0,2.61,12.0,2.91,14.24,47.59359,-54.27349
2022-05-17 14:44:01+00:00,18.0,3.35,20.0,3.88,14.24,47.59359,-54.27349
2022-05-17 14:54:01+00:00,19.0,3.41,30.0,4.06,14.24,47.59359,-54.27349
2022-05-17 15:04:01+00:00,20.0,3.33,56.0,5.16,14.24,47.59359,-54.27349
2022-05-17 15:14:01+00:00,21.0,3.31,48.0,4.82,14.32,47.59359,-54.27349
2022-05-17 15:24:01+00:00,355.0,2.81,354.0,3.13,14.32,47.59359,-54.27349
2022-05-17 15:34:01+00:00,6.0,2.57,7.0,2.98,14.32,47.59359,-54.27349
2022-05-17 15:44:01+00:00,355.0,1.81,357.0,2.02,14.32,47.59359,-54.27349
2022-05-17 15:54:01+00:00,340.0,1.34,346.0,1.69,14.32,47.59359,-54.27349
2022-05-17 16:04:01+00:00,269.0,2.63,269.0,5.33,14.32,47.59359,-54.27349
2022-05-17 16:14:00+00:00,263.0,2.52,262.0,4.83,14.32,47.59359,-54.27349
2022-05-17 16:24:00+00:00,257.0,5.87,254.0,6.23,14.32,47.59359,-54.27349
2022-05-17 16:34:00+00:00,254.0,6.09,254.0,6.47,14.32,47.59359,-54.27349
2022-05-17 16:44:00+00:00,254.0,5.98,253.0,6.93,14.32,47.59359,-54.27349
2022-05-17 16:54:00+00:00,247.0,4.21,257.0,6.26,14.32,47.59359,-54.27349
2022-05-17 17:04:00+00:00,263.0,5.68,265.0,6.19,14.32,47.59359,-54.27349
2022-05-17 17:14:01+00:00,221.0,4.47,235.0,5.41,13.68,47.59359,-54.27349
2022-05-17 17:24:01+00:00,234.0,6.44,234.0,7.82,13.68,47.59359,-54.27349
2022-05-17 17:34:01+00:00,228.0,6.76,233.0,7.72,13.68,47.59359,-54.27349
2022-05-17 17:44:01+00:00,224.0,5.75,227.0,6.62,13.68,47.59359,-54.27349
2022-05-17 17:54:01+00:00,223.0,6.55,220.0,7.79,13.68,47.59359,-54.27349
2022-05-17 18:04:01+00:00,221.0,6.32,221.0,7.41,13.68,47.59359,-54.27349
2022-05-17 18:14:01+00:00,229.0,6.86,228.0,7.83,13.76,47.59359,-54.27349
2022-05-17 18:24:01+00:00,236.0,6.42,238.0,7.49,13.76,47.59359,-54.27349
2022-05-17 18:34:01+00:00,234.0,8.16,236.0,9.71,13.76,47.59359,-54.27349
2022-05-17 18:44:01+00:00,231.0,7.05,239.0,8.03,13.76,47.59359,-54.27349
2022-05-17 18:54:01+00:00,231.0,6.37,238.0,7.35,13.76,47.59359,-54.27349
2022-05-17 19:04:01+00:00,228.0,7.02,228.0,8.52,13.76,47.59359,-54.27349
2022-05-17 19:14:00+00:00,234.0,7.43,237.0,8.94,13.76,47.59359,-54.27349
2022-05-17 19:24:00+00:00,234.0,6.8,231.0,7.9,13.76,47.59359,-54.27349
2022-05-17 19:34:00+00:00,232.0,6.5,235.0,7.83,13.76,47.59359,-54.27349
2022-05-17 19:44:00+00:00,237.0,7.13,238.0,8.62,13.76,47.59359,-54.27349
2022-05-17 19:54:00+00:00,236.0,6.75,239.0,7.86,13.76,47.59359,-54.27349
2022-05-17 20:04:00+00:00,230.0,6.35,234.0,7.96,13.76,47.59359,-54.27349
2022-05-17 20:14:01+00:00,228.0,6.55,232.0,7.28,13.76,47.59359,-54.27349
2022-05-17 20:24:01+00:00,224.0,5.91,217.0,6.85,13.76,47.59359,-54.27349
2022-05-17 20:34:01+00:00,228.0,5.66,228.0,6.43,13.76,47.59359,-54.27349
2022-05-17 20:44:01+00:00,217.0,5.49,217.0,6.45,13.76,47.59359,-54.27349
2022-05-17 20:54:01+00:00,208.0,6.07,206.0,6.6,13.76,47.59359,-54.27349
2022-05-17 21:04:01+00:00,211.0,6.16,212.0,6.56,13.76,47.59359,-54.27349
2022-05-17 21:14:00+00:00,208.0,5.96,207.0,6.52,13.44,47.59359,-54.27349
2022-05-17 21:24:00+00:00,209.0,5.42,207.0,5.78,13.44,47.59359,-54.27349
2022-05-17 21:34:00+00:00,211.0,5.86,209.0,6.31,13.44,47.59359,-54.27349
2022-05-17 21:44:00+00:00,206.0,5.25,205.0,5.55,13.44,47.59359,-54.27349
2022-05-17 21:54:00+00:00,200.0,4.47,194.0,5.31,13.44,47.59359,-54.27349
2022-05-17 22:04:00+00:00,181.0,5.56,174.0,6.98,13.44,47.59359,-54.27349
2022-05-17 22:14:00+00:00,184.0,5.73,178.0,6.48,13.05,47.59359,-54.27349
2022-05-17 22:24:00+00:00,176.0,6.44,179.0,6.95,13.05,47.59359,-54.27349
2022-05-17 22:34:00+00:00,166.0,5.88,163.0,6.63,13.05,47.59359,-54.27349
2022-05-17 22:44:00+00:00,168.0,5.53,168.0,6.92,13.05,47.59359,-54.27349
2022-05-17 22:54:00+00:00,180.0,4.79,181.0,5.56,13.05,47.59359,-54.27349
2022-05-17 23:04:00+00:00,189.0,6.08,190.0,6.55,13.05,47.59359,-54.27349
2022-05-17 23:14:01+00:00,172.0,7.28,167.0,8.24,12.57,47.59359,-54.27349
2022-05-17 23:24:01+00:00,177.0,6.61,177.0,7.66,12.57,47.59359,-54.27349
2022-05-17 23:34:01+00:00,176.0,5.4,182.0,6.64,12.57,47.59359,-54.27349
2022-05-17 23:44:01+00:00,173.0,4.86,175.0,5.33,12.57,47.59359,-54.27349
2022-05-17 23:54:01+00:00,168.0,4.86,166.0,5.75,12.57,47.59359,-54.27349
